• In Hungary
  • List of Countries
  • For 7 days
  • Water Temperature
  • Satellite Maps
  • Weather Map
  • News
  • Weather Widgets
  • user-avatar
    Login

    Hourly Weather Potosi

    Today, 22 October, Sunday

    Time Temperature Precipitation Wind Pressure Humidity
    00:00 +7°C° 0.1 mm 3 mps 468 mmHg 71%
    01:00 +5°C° 0.1 mm 3 mps 468 mmHg 72%
    02:00 +6°C° 0.1 mm 2 mps 468 mmHg 72%
    03:00 +6°C° 0 mm 2 mps 468 mmHg 73%
    04:00 +6°C° 0 mm 2 mps 468 mmHg 73%
    05:00 +6°C° 0 mm 2 mps 468 mmHg 73%
    06:00 +6°C° 0 mm 2 mps 468 mmHg 70%
    07:00 +6°C° 0 mm 2 mps 469 mmHg 67%
    08:00 +7°C° 0 mm 2 mps 470 mmHg 64%
    09:00 +8°C° 0.1 mm 3 mps 470 mmHg 59%
    10:00 +9°C° 0.1 mm 3 mps 471 mmHg 53%
    11:00 +10°C° 0.1 mm 3 mps 471 mmHg 47%
    12:00 +11°C° 0.4 mm 4 mps 471 mmHg 46%
    13:00 +11°C° 0.4 mm 4 mps 471 mmHg 44%
    14:00 +12°C° 0.4 mm 5 mps 471 mmHg 43%
    15:00 +10°C° 0.1 mm 5 mps 470 mmHg 46%
    16:00 +11°C° 0.1 mm 4 mps 469 mmHg 49%
    17:00 +10°C° 0.1 mm 4 mps 468 mmHg 52%
    18:00 +8°C° 0.1 mm 4 mps 468 mmHg 57%
    19:00 +7°C° 0.1 mm 4 mps 468 mmHg 61%
    20:00 +6°C° 0.1 mm 4 mps 467 mmHg 65%
    21:00 +7°C° 0 mm 3 mps 468 mmHg 67%
    22:00 +7°C° 0 mm 3 mps 468 mmHg 69%
    23:00 +6°C° 0 mm 2 mps 468 mmHg 70%

    Tomorrow, 23 October, Monday

    Time Temperature Precipitation Wind Pressure Humidity
    00:00 +6°C° 0 mm 2 mps 468 mmHg 71%
    01:00 +6°C° 0 mm 2 mps 468 mmHg 71%
    02:00 +7°C° 0 mm 1 mps 467 mmHg 71%
    03:00 +7°C° 0 mm 1 mps 467 mmHg 72%
    04:00 +7°C° 0 mm 1 mps 467 mmHg 72%
    05:00 +6°C° 0 mm 1 mps 467 mmHg 73%
    06:00 +7°C° 0 mm 1 mps 467 mmHg 68%
    07:00 +8°C° 0 mm 1 mps 468 mmHg 63%
    08:00 +8°C° 0 mm 1 mps 469 mmHg 58%
    09:00 +10°C° 0 mm 1 mps 470 mmHg 46%
    10:00 +12°C° 0 mm 2 mps 471 mmHg 35%
    11:00 +14°C° 0 mm 2 mps 472 mmHg 24%
    12:00 +13°C° 0 mm 3 mps 472 mmHg 23%
    13:00 +14°C° 0 mm 3 mps 472 mmHg 21%
    14:00 +15°C° 0 mm 4 mps 471 mmHg 20%
    15:00 +14°C° 0.2 mm 4 mps 471 mmHg 24%
    16:00 +14°C° 0.2 mm 4 mps 470 mmHg 28%
    17:00 +13°C° 0.2 mm 5 mps 469 mmHg 32%
    18:00 +12°C° 0.5 mm 4 mps 469 mmHg 37%
    19:00 +11°C° 0.5 mm 4 mps 469 mmHg 42%
    20:00 +10°C° 0.5 mm 3 mps 469 mmHg 48%
    21:00 +10°C° 0 mm 3 mps 469 mmHg 51%
    22:00 +9°C° 0 mm 2 mps 469 mmHg 55%
    23:00 +9°C° 0 mm 2 mps 469 mmHg 58%

    Day after tomorrow, 24 October, Tuesday

    Time Temperature Precipitation Wind Pressure Humidity
    00:00 +8°C° 0 mm 2 mps 469 mmHg 60%
    01:00 +8°C° 0 mm 2 mps 468 mmHg 62%
    02:00 +9°C° 0 mm 1 mps 468 mmHg 63%
    03:00 +8°C° 0 mm 1 mps 467 mmHg 62%
    04:00 +8°C° 0 mm 1 mps 467 mmHg 61%
    05:00 +8°C° 0 mm 1 mps 467 mmHg 60%
    06:00 +9°C° 0 mm 1 mps 468 mmHg 49%
    07:00 +10°C° 0 mm 1 mps 469 mmHg 38%
    08:00 +11°C° 0 mm 1 mps 470 mmHg 27%
    09:00 +13°C° 0 mm 1 mps 471 mmHg 22%
    10:00 +14°C° 0 mm 2 mps 472 mmHg 17%
    11:00 +15°C° 0 mm 2 mps 472 mmHg 12%
    12:00 +16°C° 0 mm 2 mps 472 mmHg 11%
    13:00 +17°C° 0 mm 2 mps 472 mmHg 11%
    14:00 +17°C° 0 mm 3 mps 472 mmHg 11%
    15:00 +17°C° 0.5 mm 4 mps 471 mmHg 15%
    16:00 +15°C° 0.5 mm 5 mps 470 mmHg 20%
    17:00 +15°C° 0.5 mm 5 mps 469 mmHg 25%
    18:00 +14°C° 0.3 mm 5 mps 469 mmHg 30%
    19:00 +12°C° 0.3 mm 5 mps 469 mmHg 35%
    20:00 +11°C° 0.3 mm 4 mps 469 mmHg 40%
    21:00 +10°C° 0.5 mm 4 mps 469 mmHg 46%
    22:00 +10°C° 0.5 mm 3 mps 469 mmHg 52%
    23:00 +9°C° 0.5 mm 3 mps 469 mmHg 58%

    25 October, Wednesday

    Time Temperature Precipitation Wind Pressure Humidity
    00:00 +9°C° 0.1 mm 2 mps 468 mmHg 59%
    01:00 +8°C° 0.1 mm 2 mps 468 mmHg 61%
    02:00 +8°C° 0.1 mm 2 mps 467 mmHg 62%
    03:00 +9°C° 0 mm 1 mps 467 mmHg 63%
    04:00 +8°C° 0 mm 1 mps 467 mmHg 65%
    05:00 +8°C° 0 mm 1 mps 467 mmHg 66%
    06:00 +9°C° 0 mm 1 mps 468 mmHg 58%
    07:00 +10°C° 0 mm 1 mps 469 mmHg 51%
    08:00 +10°C° 0 mm 1 mps 469 mmHg 43%
    09:00 +12°C° 0 mm 2 mps 470 mmHg 35%
    10:00 +14°C° 0 mm 2 mps 471 mmHg 26%
    11:00 +15°C° 0 mm 2 mps 472 mmHg 17%
    12:00 +16°C° 0 mm 3 mps 472 mmHg 16%
    13:00 +17°C° 0 mm 3 mps 472 mmHg 14%
    14:00 +18°C° 0 mm 4 mps 472 mmHg 12%
    15:00 +17°C° 0 mm 5 mps 471 mmHg 15%
    16:00 +16°C° 0 mm 5 mps 470 mmHg 17%
    17:00 +16°C° 0 mm 6 mps 469 mmHg 20%
    18:00 +15°C° 0.1 mm 5 mps 469 mmHg 23%
    19:00 +14°C° 0.1 mm 4 mps 469 mmHg 27%
    20:00 +13°C° 0.1 mm 3 mps 469 mmHg 30%
    21:00 +12°C° 0.1 mm 3 mps 469 mmHg 33%
    22:00 +12°C° 0.1 mm 2 mps 469 mmHg 37%
    23:00 +10°C° 0.1 mm 2 mps 468 mmHg 40%

    26 October, Thursday

    Time Temperature Precipitation Wind Pressure Humidity
    00:00 +9°C° 0 mm 2 mps 468 mmHg 40%
    01:00 +10°C° 0 mm 1 mps 467 mmHg 40%
    02:00 +9°C° 0 mm 1 mps 466 mmHg 40%
    03:00 +9°C° 0 mm 1 mps 466 mmHg 37%
    04:00 +8°C° 0 mm 1 mps 466 mmHg 35%
    05:00 +7°C° 0 mm 1 mps 466 mmHg 33%
    06:00 +9°C° 0 mm 1 mps 467 mmHg 27%
    07:00 +10°C° 0 mm 1 mps 468 mmHg 20%
    08:00 +11°C° 0 mm 1 mps 470 mmHg 14%
    09:00 +13°C° 0 mm 1 mps 470 mmHg 12%
    10:00 +14°C° 0 mm 1 mps 471 mmHg 10%
    11:00 +16°C° 0 mm 1 mps 472 mmHg 7%
    12:00 +16°C° 0 mm 2 mps 472 mmHg 8%
    13:00 +17°C° 0 mm 3 mps 472 mmHg 8%
    14:00 +18°C° 0 mm 4 mps 472 mmHg 9%
    15:00 +17°C° 0 mm 5 mps 471 mmHg 14%
    16:00 +16°C° 0 mm 6 mps 471 mmHg 19%
    17:00 +15°C° 0 mm 8 mps 470 mmHg 25%
    18:00 +14°C° 0.5 mm 7 mps 469 mmHg 36%
    19:00 +11°C° 0.5 mm 6 mps 469 mmHg 48%
    20:00 +9°C° 0.5 mm 5 mps 468 mmHg 60%
    21:00 +8°C° 0.1 mm 4 mps 468 mmHg 62%
    22:00 +9°C° 0.1 mm 3 mps 468 mmHg 65%
    23:00 +8°C° 0.1 mm 3 mps 468 mmHg 68%

    27 October, Friday

    Time Temperature Precipitation Wind Pressure Humidity
    00:00 +8°C° 0 mm 2 mps 468 mmHg 67%
    01:00 +8°C° 0 mm 2 mps 468 mmHg 66%
    02:00 +8°C° 0 mm 2 mps 467 mmHg 65%
    03:00 +9°C° 0 mm 1 mps 467 mmHg 64%
    04:00 +8°C° 0 mm 1 mps 467 mmHg 64%
    05:00 +8°C° 0 mm 1 mps 467 mmHg 63%
    06:00 +9°C° 0 mm 1 mps 468 mmHg 55%
    07:00 +10°C° 0 mm 1 mps 469 mmHg 48%
    08:00 +11°C° 0 mm 1 mps 470 mmHg 40%
    09:00 +13°C° 0 mm 1 mps 470 mmHg 35%
    10:00 +14°C° 0 mm 2 mps 471 mmHg 29%
    11:00 +16°C° 0 mm 2 mps 472 mmHg 24%
    12:00 +17°C° 0 mm 3 mps 471 mmHg 23%
    13:00 +17°C° 0 mm 4 mps 471 mmHg 23%
    14:00 +18°C° 0 mm 4 mps 471 mmHg 22%
    15:00 +17°C° 0.9 mm 5 mps 470 mmHg 25%
    16:00 +16°C° 0.9 mm 6 mps 469 mmHg 28%
    17:00 +15°C° 0.9 mm 7 mps 469 mmHg 31%
    18:00 +14°C° 0.2 mm 6 mps 468 mmHg 36%
    19:00 +13°C° 0.2 mm 5 mps 468 mmHg 41%
    20:00 +10°C° 0.2 mm 5 mps 468 mmHg 47%
    21:00 +11°C° 0.4 mm 4 mps 468 mmHg 49%
    22:00 +10°C° 0.4 mm 3 mps 468 mmHg 52%
    23:00 +10°C° 0.4 mm 3 mps 467 mmHg 54%
    Show more